AC2VK-1 Weather Reports


Display with metric or nautical units.
time (UTC)temp
F
wind
direction
speed
MPH
gust
MPH
rain 1hr
in
rain 24hr
in
rain mn
in
humidity
%
barometer
mb
20260505164916 74 45 4.0 9.0 0.00 0.00 0.00 51 1016.3
20260505163916 73 4 5.0 12.0 0.00 0.00 0.00 50 1016.5
20260505162916 73 225 4.0 16.0 0.00 0.00 0.00 51 1016.6
20260505161916 73 157 6.0 13.0 0.00 0.00 0.00 49 1016.6
20260505160916 73 341 5.0 14.0 0.00 0.00 0.00 50 1016.4
20260505152916 71 274 4.0 13.0 0.00 0.00 0.00 54 1016.6
20260505151916 71 253 2.0 7.0 0.00 0.00 0.00 56 1016.4
20260505150916 71 114 2.0 5.0 0.00 0.00 0.00 56 1016.5
20260505124917 59 345 1.0 2.0 0.00 0.00 0.00 73 1016.5
20260505123917 58 345 0.0 0.0 0.00 0.00 0.00 74 1016.3
20260505122917 58 345 0.0 1.0 0.00 0.00 0.00 74 1016.3
20260505121917 57 345 0.0 2.0 0.00 0.00 0.00 75 1016.3
20260505120917 56 349 1.0 2.0 0.00 0.00 0.00 75 1016.2
20260505115917 56 9 1.0 3.0 0.00 0.00 0.00 75 1016.3
20260505114917 55 10 1.0 3.0 0.00 0.00 0.00 75 1016.1
20260505113917 55 16 1.0 1.0 0.00 0.00 0.00 75 1016.0
20260505112917 56 359 1.0 5.0 0.00 0.00 0.00 74 1015.8
20260505111917 58 152 0.0 0.0 0.00 0.00 0.00 66 1015.6
20260505110917 57 153 0.0 0.0 0.00 0.00 0.00 66 1015.4
20260505101917 60 152 0.0 0.0 0.00 0.00 0.00 60 1015.3
20260505100917 61 152 0.0 0.0 0.00 0.00 0.00 59 1015.4
20260505095917 61 152 0.0 0.0 0.00 0.00 0.00 58 1015.5
20260505094917 62 152 0.0 0.0 0.00 0.00 0.00 58 1015.5
20260505093917 62 152 1.0 2.0 0.00 0.00 0.00 59 1015.4
20260505092917 61 178 0.0 2.0 0.00 0.00 0.00 59 1015.5
20260505091917 61 179 0.0 2.0 0.00 0.00 0.00 60 1015.5
20260505090917 61 139 0.0 1.0 0.00 0.00 0.00 61 1015.4
20260505085917 61 214 0.0 1.0 0.00 0.00 0.00 60 1015.3
20260505084917 62 217 1.0 2.0 0.00 0.00 0.00 60 1015.2
20260505083917 62 171 1.0 3.0 0.00 0.00 0.00 60 1015.2
20260505082917 61 157 1.0 3.0 0.00 0.00 0.00 61 1015.1
20260505081917 61 162 1.0 3.0 0.00 0.00 0.00 63 1015.0
20260505080917 60 89 1.0 6.0 0.00 0.00 0.00 64 1015.0
20260505075917 60 192 1.0 4.0 0.00 0.00 0.00 65 1015.1
20260505074917 60 162 0.0 2.0 0.00 0.00 0.00 65 1014.9
20260505073917 59 160 0.0 2.0 0.00 0.00 0.00 66 1015.0
20260505072917 60 176 0.0 0.0 0.00 0.00 0.00 66 1015.2
20260505071917 60 176 0.0 0.0 0.00 0.00 0.00 66 1015.3
20260505070917 60 172 1.0 2.0 0.00 0.00 0.00 66 1015.4
20260505065917 61 181 0.0 2.0 0.00 0.00 0.00 65 1015.4
20260505064917 61 158 1.0 3.0 0.00 0.00 0.00 65 1015.3
20260505063917 61 156 2.0 5.0 0.00 0.00 0.00 65 1015.2
20260505062917 61 193 1.0 7.0 0.00 0.00 0.00 66 1015.2
20260505061918 61 158 1.0 5.0 0.00 0.00 0.00 66 1015.2
20260505060918 61 239 0.0 0.0 0.00 0.00 0.00 67 1015.1
20260505055918 61 268 0.0 0.0 0.00 0.00 0.00 66 1015.1
20260505054918 61 249 0.0 0.0 0.00 0.00 0.00 65 1015.1
20260505053918 61 184 0.0 2.0 0.00 0.00 0.00 66 1015.0
20260505052918 61 162 1.0 3.0 0.00 0.00 0.00 66 1015.0
20260505051918 61 116 1.0 3.0 0.00 0.00 0.00 66 1014.9
20260505050918 61 138 2.0 4.0 0.00 0.00 0.00 66 1014.8
20260505040918 63 200 1.0 2.0 0.00 0.00 0.00 62 1015.0
20260505035918 64 182 1.0 2.0 0.00 0.00 0.00 62 1015.0
20260505034918 64 172 0.0 3.0 0.00 0.00 0.00 61 1014.9
20260505033918 64 159 1.0 2.0 0.00 0.00 0.00 61 1014.9
20260505032918 64 152 1.0 3.0 0.00 0.00 0.00 61 1014.9
20260505031918 64 183 0.0 2.0 0.00 0.00 0.00 60 1015.0
20260505030918 65 184 1.0 3.0 0.00 0.00 0.00 60 1015.0
20260505025918 65 187 1.0 2.0 0.00 0.00 0.00 60 1015.1
20260505024918 65 190 1.0 4.0 0.00 0.00 0.00 60 1015.2
20260505023918 66 185 1.0 4.0 0.00 0.00 0.00 59 1015.3
20260505022918 66 187 1.0 4.0 0.00 0.00 0.00 59 1015.4
20260505021918 66 149 1.0 3.0 0.00 0.00 0.00 59 1015.3
20260505020918 66 268 2.0 5.0 0.00 0.00 0.00 59 1015.3
20260505015918 67 193 2.0 5.0 0.00 0.00 0.00 59 1015.1
20260505014918 67 176 2.0 6.0 0.00 0.00 0.00 58 1015.1
20260505013918 67 185 2.0 7.0 0.00 0.00 0.00 58 1015.1
20260505012918 67 253 2.0 5.0 0.00 0.00 0.00 58 1015.0
20260505011918 68 201 1.0 5.0 0.00 0.00 0.00 57 1014.9
20260505010918 68 177 2.0 4.0 0.00 0.00 0.00 56 1014.8
20260505005918 69 170 1.0 3.0 0.00 0.00 0.00 54 1014.8
20260505004918 70 135 2.0 3.0 0.00 0.00 0.00 53 1014.6
20260505003918 70 198 1.0 4.0 0.00 0.00 0.00 52 1014.5
20260505002918 71 261 2.0 6.0 0.00 0.00 0.00 50 1014.5
20260505001918 71 235 1.0 7.0 0.00 0.00 0.00 50 1014.5
20260505000918 72 214 2.0 4.0 0.00 0.00 0.00 49 1014.5
20260504235918 72 186 2.0 6.0 0.00 0.00 0.00 47 1014.5
20260504234918 73 218 3.0 6.0 0.00 0.00 0.00 47 1014.5
20260504233918 73 235 3.0 5.0 0.00 0.00 0.00 46 1014.4
20260504232918 74 204 2.0 11.0 0.00 0.00 0.00 46 1014.4
20260504231918 76 250 3.0 9.0 0.00 0.00 0.00 46 1014.3
20260504230918 76 264 2.0 9.0 0.00 0.00 0.00 46 1014.2
20260504225918 76 266 2.0 8.0 0.00 0.00 0.00 46 1014.2
20260504224918 76 178 2.0 5.0 0.00 0.00 0.00 46 1014.2
20260504223918 76 179 3.0 6.0 0.00 0.00 0.00 47 1014.3
20260504222918 76 261 4.0 9.0 0.00 0.00 0.00 47 1014.4
20260504221918 76 239 4.0 10.0 0.00 0.00 0.00 46 1014.3
20260504220918 76 278 3.0 8.0 0.00 0.00 0.00 46 1014.4
20260504215918 76 233 3.0 9.0 0.00 0.00 0.00 45 1014.4
20260504214919 77 314 3.0 8.0 0.00 0.00 0.00 45 1014.4
20260504213919 77 272 3.0 10.0 0.00 0.00 0.00 44 1014.3
20260504212919 76 167 2.0 6.0 0.00 0.00 0.00 48 1014.4
20260504211919 76 257 3.0 7.0 0.00 0.00 0.00 46 1014.5
20260504210919 76 260 4.0 10.0 0.00 0.00 0.00 44 1014.4
20260504205919 77 164 4.0 7.0 0.00 0.00 0.00 44 1014.7
20260504204919 77 256 4.0 10.0 0.00 0.00 0.00 43 1014.6
20260504203919 77 337 4.0 9.0 0.00 0.00 0.00 46 1014.8
20260504202919 77 299 3.0 9.0 0.00 0.00 0.00 45 1014.9
20260504201919 77 176 3.0 10.0 0.00 0.00 0.00 47 1015.0
20260504200919 76 319 4.0 10.0 0.00 0.00 0.00 49 1015.1
20260504195919 77 158 3.0 10.0 0.00 0.00 0.00 48 1015.2
20260504194919 76 337 3.0 8.0 0.00 0.00 0.00 46 1015.3
20260504193919 76 280 3.0 7.0 0.00 0.00 0.00 49 1015.6
20260504192919 76 343 3.0 8.0 0.00 0.00 0.00 50 1015.7
20260504191919 75 149 3.0 9.0 0.00 0.00 0.00 51 1016.1
20260504190919 74 245 3.0 8.0 0.00 0.00 0.00 52 1016.3
20260504185919 74 324 3.0 8.0 0.00 0.00 0.00 49 1016.4
20260504184919 75 244 2.0 5.0 0.00 0.00 0.00 52 1016.4
20260504183919 74 250 3.0 10.0 0.00 0.00 0.00 53 1016.7
20260504182919 74 278 3.0 6.0 0.00 0.00 0.00 52 1016.8
20260504181919 73 135 3.0 7.0 0.00 0.00 0.00 52 1016.9
20260504180919 73 320 4.0 10.0 0.00 0.00 0.00 52 1017.0
20260504175919 73 299 3.0 9.0 0.00 0.00 0.00 53 1017.1
20260504174919 72 318 4.0 12.0 0.00 0.00 0.00 53 1017.1
20260504173919 72 215 4.0 11.0 0.00 0.00 0.00 52 1017.3
20260504172919 72 197 4.0 9.0 0.00 0.00 0.00 51 1017.2
20260504171919 72 171 4.0 10.0 0.00 0.00 0.00 51 1017.4
20260504170919 71 216 4.0 11.0 0.00 0.00 0.00 52 1017.6